www.pogodaiklimat.ru

Погода и климат >> Архив погоды >> Индонезия >> Паоанкарая


ПОГОДА в Паоанкарая

  • Прогноз погоды в Паоанкарая
  • Монитор погоды в Паоанкарая

АРХИВ ПОГОДЫ в Паоанкарая

Время (UTC), дата Ветер
(напр.,м/с)
 
Видим.   Явления Облачность Т
(С)
Тd
(С)
f
(%)
Тe
(С)
Тes
(С)
Комфортность P
(гПа)
Po
(гПа)
Тmin
(С)
Tmax
(С)
R
(мм)
R24
(мм)
S
(см)
00 18.06 штиль 0 5000 м мгла 9/6 300 м
[Sc As op Ci sp]
+25.7 +24.7 94 +36 +37 очень
душно
1013.6 1009.9 +24.2
03 18.06 В 2 10 км 9/6 330 м
[Sc As trans Ci fib]
+29.6 +24.0 72 +41 +45 опасность
перегрева
1013.2 1009.5
06 18.06 ЮВ 2 10 км 8/6 360 м
[Sc As trans Ci fib]
+31.0 +23.0 62 +41 +46 опасность
перегрева
1010.6 1007.5
09 18.06 ЮЗ 3 10 км 8/6 360 м
[Sc As trans Ci fib]
+29.9 +23.6 69 +41 +41 опасность
перегрева
1009.4 1006.3
12 18.06 Ю 4 8000 м 6/5 400 м
[Sc As trans Ci fib]
+27.5 +24.1 82 +38 +38 очень
душно
1010.7 1007.6 +32.4
15 18.06 Ю 2 8000 м 8/5 400 м
[Sc As trans Ci fib]
+25.8 +23.3 86 +35 +35 очень
душно
1011.8 1008.8
18 18.06 Ю 2 8000 м 8/5 400 м
[Sc As trans Ci fib]
+25.0 +23.0 89 +33 +33 очень
душно
1011.3 1008.8
21 18.06 С 2 8000 м 8/5 400 м
[Sc As trans Ci fib]
+25.0 +23.2 90 +33 +33 очень
душно
1011.7 1008.7
00 19.06 С 2 8000 м {дождь} 8/6 330 м
[Sc As trans Ci fib]
+24.8 +23.3 91 +33 +34 очень
душно
1013.9 1010.7 +24.4 0.2
03 19.06 ЮЗ 3 9000 м в посл. час дождь 9/8 330 м
[Cu med, cong As op Ci fib]
+26.1 +23.6 86 +35 +37 очень
душно
1013.2 1010.1 2
06 19.06 ЮЗ 5 8000 м слаб. дождь 9/8 300 м
[Cu Sc As op Ci fib]
+27.7 +24.7 84 +39 +41 очень
душно
1011.8 1008.2 0.0
09 19.06 ЮЗ 4 10 км {дождь} 8/6 360 м
[Sc As trans Ci fib]
+27.5 +24.3 83 +39 +39 очень
душно
1010.4 1006.7
12 19.06 Ю 2 9000 м {дождь} 8/5 400 м
[Sc As trans Ci fib]
+25.4 +23.8 91 +35 +35 очень
душно
1011.4 1008.2 +29.5 0.0
15 19.06 штиль 0 8000 м 8/5 360 м
[Sc As trans Ci fib]
+24.6 +23.8 95 +33 +33 очень
душно
1013.1 1009.9
18 19.06 штиль 0 7000 м 8/5 360 м
[Sc As trans Ci fib]
+24.3 +23.9 98 +33 +33 очень
душно
1013.5 1010.3
21 19.06 штиль 0 6000 м 8/5 360 м
[Sc As trans Ci fib]
+24.1 +23.8 98 +33 +33 очень
душно
1012.6 1009.4
00 20.06 СЗ 2 10 км 10/8 300 м
[Sc As op Ci sp]
+24.3 +22.9 92 +32 +32 очень
душно
1014.3 1011.2 +23.4 2
03 20.06 В 2 10 км 9/6 330 м
[Sc As op Ci sp]
+28.3 +23.6 76 +39 +43 очень
душно
1014.1 1010.8
06 20.06 В 3 10 км 9/8 330 м
[Cu Sc As trans Ci fib]
+29.9 +23.3 68 +40 +42 очень
душно
1011.3 1008.3
09 20.06 ЮВ 2 10 км 8/8 330 м
[Cu Sc As trans Ci fib]
+30.0 +22.8 65 +40 +40 очень
душно
1009.7 1006.6
12 20.06 штиль 0 10 км 6/5 400 м
[Sc As trans Ci fib]
+28.1 +25.0 83 +40 +40 очень
душно
1011.3 1007.7 +30.8
15 20.06 Ю 2 9000 м 6/5 400 м
[Sc As trans Ci fib]
+26.4 +25.2 93 +38 +38 очень
душно
1012.3 1008.7
18 20.06 штиль 0 9000 м 6/5 400 м
[Sc As trans Ci fib]
+25.6 +24.9 96 +36 +36 очень
душно
1011.7 1008.1
21 20.06 Ю 1 9000 м 6/5 400 м
[Sc As trans Ci fib]
+25.4 +24.8 96 +36 +36 очень
душно
1011.3 1007.7
00 21.06 ЮВ 1 10 км 3/1 420 м
[Sc As trans Ci fib]
+26.1 +22.9 83 +35 +38 очень
душно
1012.7 1009.5 +24.2
03 21.06 В 2 10 км 6/6 400 м
[Sc As trans Ci fib]
+30.5 +22.7 63 +40 +46 очень
душно
1011.7 1008.6
06 21.06 ЮВ 2 10 км 6/6 330 м
[Sc As trans Ci fib]
+31.6 +22.3 58 +41 +47 опасность
перегрева
1009.4 1006.2
09 21.06 ЮЗ 3 10 км 4/3 360 м
[Cu med, cong As trans Ci fib]
+32.2 +22.1 55 +41 +42 опасность
перегрева
1008.3 1005.0
12 21.06 Ю 2 9000 м 4/3 330 м
[Sc As trans Ci fib]
+27.9 +23.9 79 +39 +39 очень
душно
1010.1 1006.9 +33.3
15 21.06 Ю 2 9000 м 5/3 400 м
[Sc As trans Ci fib]
+26.0 +24.0 89 +36 +36 очень
душно
1011.5 1008.3
18 21.06 штиль 0 8000 м 6/4 360 м
[Sc As trans Ci fib]
+25.5 +23.9 91 +35 +35 очень
душно
1011.7 1008.5
21 21.06 штиль 0 7000 м 6/4 360 м
[Sc As trans Ci fib]
+25.0 +23.9 94 +34 +34 очень
душно
1010.7 1007.5
00 22.06 Ю 1 9000 м 4/3 400 м
[Sc As trans Ci fib]
+25.0 +23.6 92 +34 +36 очень
душно
1011.6 1008.5 +24.4
03 22.06 Ю 1 10 км 5/5 400 м
[Sc As trans Ci fib]
+30.9 +22.7 62 +41 +50 опасность
перегрева
1010.9 1007.8
06 22.06 С 3 10 км 6/6 400 м
[Sc As trans Ci fib]
+32.2 +22.8 58 +42 +48 опасность
перегрева
1008.7 1005.7
09 22.06 Ю 4 10 км 6/5 400 м
[Sc As trans Ci fib]
+32.6 +22.2 54 +41 +42 опасность
перегрева
1007.5 1004.5
12 22.06 Ю 4 9000 м 3/1 400 м
[Sc As trans Ci fib]
+28.0 +23.4 76 +38 +38 очень
душно
1009.7 1006.4 +33.0
15 22.06 Ю 4 9000 м 1/0
[As trans Ci fib]
+25.7 +23.1 86 +34 +34 очень
душно
1011.0 1007.7
18 22.06 Ю 2 8000 м 3/0
[As trans Ci fib]
+24.5 +22.6 89 +32 +32 очень
душно
1010.9 1007.6
21 22.06 Ю 1 8000 м 5/4 400 м
[Sc As trans Ci fib]
+23.9 +22.3 91 +31 +31 очень
душно
1010.7 1007.5
00 23.06 Ю 2 8000 м 5/4 400 м
[Sc As trans Ci fib]
+26.3 +24.4 89 +37 +38 очень
душно
1012.5 1009.4 +23.5
03 23.06 ЮВ 3 10 км 6/5 400 м
[Sc As trans Ci fib]
+30.6 +22.7 63 +40 +46 очень
душно
1012.1 1009.1
06 23.06 Ю 4 10 км 6/5 400 м
[Sc As trans Ci fib]
+32.0 +21.5 54 +40 +45 очень
душно
1010.1 1006.4
09 23.06 Ю 3 10 км 5/5 400 м
[Sc As trans Ci fib]
+32.3 +22.0 55 +41 +42 опасность
перегрева
1009.1 1005.5
12 23.06 Ю 3 8000 м 6/5 400 м
[Sc As trans Ci fib]
+27.3 +24.3 84 +38 +38 очень
душно
1011.2 1008.1 +33.6
15 23.06 ЮЗ 3 8000 м 6/5 400 м
[Sc As trans Ci fib]
+25.3 +23.2 88 +34 +34 очень
душно
1012.3 1009.1
18 23.06 ЮЗ 2 8000 м 6/5 400 м
[Sc As trans Ci fib]
+24.1 +22.4 90 +31 +31 очень
душно
1012.5 1009.4
21 23.06 ЮЗ 2 8000 м 6/5 400 м
[Sc As trans Ci fib]
+23.3 +21.9 92 +32 +32 очень
душно
1012.4 1009.3
00 24.06 Ю 2 8000 м 4/1 400 м
[Sc As trans Ci fib]
+25.0 +23.7 93 +34 +36 очень
душно
1013.9 1010.2 +23.0
03 24.06 ЮВ 3 10 км 5/4 400 м
[Sc As trans Ci fib]
+30.7 +23.9 67 +42 +50 опасность
перегрева
1013.5 1009.8
06 24.06 СВ 3 10 км 8/6 400 м
[Sc As trans Ci fib]
+32.9 +20.2 47 +39 +43 очень
душно
1011.4 1008.4
09 24.06 СВ 2 10 км 8/6 400 м
[Sc As trans Ci fib]
+32.2 +21.1 52 +40 +41 очень
душно
1010.2 1007.2
12 24.06 Ю 2 8000 м 6/4 400 м
[Sc As trans Ci fib]
+27.6 +23.4 78 +37 +37 очень
душно
1012.2 1009.0 +33.7
15 24.06 Ю 1 8000 м 5/3 400 м
[Sc As trans Ci fib]
+26.1 +23.5 86 +35 +35 очень
душно
1013.7 1010.5
18 24.06 штиль 0 7000 м 6/4 360 м
[Sc As trans Ci fib]
+25.4 +23.6 90 +35 +35 очень
душно
1013.6 1010.4

 

Местоположение метеостанции Паоанкарая (Индонезия): широта -1.00 долгота 114.00 высота над уровнем моря 27 м.

В архиве по умолчанию представлена погода в Паоанкарая за последнюю неделю. Архивные данные за месяц целиком и за предыдущие месяцы, начиная с января 2011 года, Вы можете получить, выбрав интересующий диапазон дат из раскрывающегося списка и нажав кнопку "Ввод!".


*Определитесь, кто Вы:
робот инопланетянин человек

Внимание! Время в таблицах - всемирное. Для получения местного времени необходимо прибавить поправку, которая равна 7 ч.

Смотрите также архив погоды в соседних городах и на ближайших метеорологических станциях:

Погода в Муаратевехе (Индонезия) (100 км)
Погода на Путусиббау (Индонезия) (236 км)
Погода в Нангапинохе (Индонезия) (257 км)
Погода в Банджармасине (Индонезия) (283 км)
Погода в Синтанге (Индонезия) (302 км)
Погода в Пангкалан-Буне (Индонезия) (318 км)
Погода в Баликпапане (Индонезия) (324 км)
Погода в Самаринде (Индонезия) (353 км)
Погода в Котабару (Индонезия) (363 км)
Погода в Сибу (Малайзия) (442 км)

Пояснения к столбцам:

Ветер - указаны скорость ветра в м/с - средняя за 10 мин, порывы в срок и между сроками (в фигурных скобках) и направление, откуда дует ветер: С - северный, СВ - северо-восточный, В - восточный, ЮВ - юго-восточный, Ю - южный, ЮЗ - юго-западный, З - западный, СЗ - северо-западный.
Видимость - горизонтальная дальность видимости в метрах или километрах. При видимости от 1 до 10 км при отсутствии осадков обычно наблюдается дымка, при ухудшении видимости до 1 км и менее - туман. В сухую погоду видимость может ухудшаться дымом, пылью или мглою.
Явления - указаны атмосферные явления, наблюдавшиеся в срок или в последний час перед сроком; фигурными скобками обозначены явления, наблюдавшиеся между сроками (за 1-3 часа до срока); квадратными скобками обозначены град или гололедные отложения с указанием их диаметра в мм.
Облачность - указаны через наклонную черту общая и нижняя облачность в баллах и высота нижней границы облаков в метрах; квадратными скобками обозначены формы облаков: Ci - перистые, Cs - перисто-слоистые, Cc - перисто-кучевые, Ac - высококучевые, As - высокослоистые, Sc - слоисто-кучевые, Ns - слоисто-дождевые, Cu - кучевые, Cb - кучево-дождевые. Подробнее классификацию облаков см. в Атласе облаков (PDF).
T - Температура воздуха - температура, измеренная на высоте 2 м над землей.
Td - Температура точки росы - температура, при понижении до которой содержащийся в воздухе водяной пар достигнет насыщения.
f - Относительная влажность воздуха - влажноcть воздуха, измеренная на высоте 2 м над землей.
Te - Эффективная температура - температура, которую ощущает одетый по сезону человек в тени. Характеристика душности погоды. При расчете учитывается влияние влажности воздуха и скорости ветра на теплоощущения человека.
Tes - Эффективная температура на солнце - температура, которую ощущает человек, с поправкой на солнечный нагрев. Характеристика знойности погоды. Зависит от высоты солнца над горизонтом, облачности и скорости ветра. Ночью, в пасмурную погоду, а также при ветре 12 м/с и более поправка равна нулю.
P - Атмосферное давление - приведенное к уровню моря атмосферное давление.
Po - Атмосферное давление - измеренное на уровне метеостанции атмосферное давление.
Tmin - Минимальная температура - минимум температуры воздуха на высоте 2 м над землей.
Tmax - Максимальная температура - максимум температуры воздуха на высоте 2 м над землей.
R - Количество осадков - Количество выпавших осадков за период времени, мм. При наведении курсора мыши на число - период времени, за который выпало указанное количество осадков.
R24 - Количество осадков - Количество выпавших осадков за 24 часа, мм.
S - Снежный покров - Высота снежного покрова, см. При наведении курсора мыши на число - состояние снежного покрова и степень покрытия местности в баллах.